[[{"header":{"parameterUnit":"m.s-1","parameterCategory":1,"la1":30.2991,"la2":30.254,"lo1":-89.0895,"lo2":-89.0444,"dy":0.0017,"dx":0.0017,"nx":28,"ny":28,"refTime":"2024-02-27T03:00:00:Z","depth":0,"parameterNumber":2,"parameterNumberName":"U-component_of_WINDS"},"data":[0,0,0,0,0,0,0,0,0,0,0,0,0,0,0,0,0,0,0,0,0,0,0,0,0,0,0,0,0,0,0,0,0,0,0,0,0,0,0,0,0,0,0,0,0,0,0,0,0,0,0,0,0,0,0,0,0,0,1.554,1.554,0,1.5555,1.5555,1.5555,1.5532,1.5531,1.5531,1.553,1.5547,1.5548,1.555,0,0,0,0,0,0,0,0,0,0,0,0,0,1.5494,1.5494,1.554,1.554,1.554,1.5555,1.5555,1.5555,1.5532,1.5531,1.553,1.5529,1.5547,1.5548,1.555,0,0,0,0,0,0,0,0,0,0,0,0,0,1.5512,1.5495,1.554,1.5531,1.553,1.5555,1.5555,1.5555,1.5533,1.5531,1.553,1.5529,1.5546,1.5548,1.555,1.5585,0,0,1.5556,1.5556,0,0,0,0,0,0,0,0,1.5511,1.5513,1.5532,1.5531,1.5531,1.554,1.5545,1.5566,1.5533,1.5532,1.553,1.5528,1.5546,1.5548,1.5553,1.5586,1.5587,1.5556,1.5557,1.5558,1.5558,0,0,0,0,0,0,0,1.5509,1.5513,1.5546,1.5532,1.5531,1.5526,1.5528,1.5549,1.5546,1.5532,1.553,1.5532,1.5546,1.5552,1.5554,1.5587,1.5556,1.5557,1.5558,1.5559,1.565,1.5651,0,0,0,0,0,0,1.5509,1.5512,1.5546,1.5546,1.5517,1.5528,1.5529,1.5539,1.5545,1.5545,1.5533,1.5531,1.5549,1.5552,1.5554,1.5596,1.5558,1.5559,1.556,1.5649,1.565,1.5652,0,0,0,0,0,0,1.5508,1.5512,1.5545,1.5529,1.5532,1.553,1.5541,1.5539,1.5546,1.5546,1.5546,1.554,1.5548,1.5552,1.5578,1.5596,1.556,1.5562,1.5647,1.5649,1.5651,1.5681,0,0,0,0,0,0,1.5507,1.5512,1.5525,1.5529,1.5533,1.5568,1.5542,1.5541,1.5548,1.5546,1.5552,1.5552,1.5548,1.5575,1.5579,1.5598,1.5563,1.5645,1.5648,1.565,1.5678,1.5683,1.5688,0,0,0,0,0,1.5505,1.5533,1.5526,1.553,1.555,1.5569,1.5571,1.5565,1.555,1.5563,1.5564,1.5552,1.5594,1.5578,1.5583,1.5602,1.5644,1.5647,1.565,1.5676,1.5682,1.5688,0,0,0,0,0,0,1.5532,1.5534,1.5525,1.5555,1.5562,1.5565,1.5582,1.5572,1.5583,1.558,1.5572,1.5574,1.5602,1.5605,1.5587,1.5637,1.5617,1.5621,1.5634,1.5641,1.5645,1.5644,1.5565,0,0,0,0,0,1.5542,1.5557,1.5557,1.5584,1.5587,1.5584,1.5592,1.5586,1.5593,1.5596,1.5598,1.5606,1.5621,1.5631,1.5644,1.5678,1.5679,1.5694,1.5699,1.5703,1.5707,1.5725,1.5732,1.5661,1.5661,1.5661,0,0,1.5561,1.5564,1.5574,1.5589,1.5594,1.561,1.5586,1.5605,1.5617,1.5599,1.5624,1.5626,1.5634,1.5664,1.5677,1.5667,1.5726,1.5707,1.571,1.5712,1.5729,1.5735,1.5741,1.5663,1.5663,1.5663,0,0,1.5605,1.5609,1.5631,1.5636,1.5643,1.564,1.5646,1.565,1.565,1.5675,1.5662,1.5676,1.5702,1.5708,1.5715,1.5761,1.5751,1.5766,1.5792,1.581,1.5815,1.582,1.5837,1.5843,1.5769,1.5769,1.5769,0,1.5629,1.5652,1.5644,1.5663,1.567,1.5654,1.5677,1.5682,1.5694,1.5699,1.5687,1.5719,1.5723,1.5755,1.5766,1.5772,1.5778,1.5765,1.5815,1.582,1.5824,1.584,1.5847,1.5771,1.5771,1.5771,1.5771,0,1.5681,1.5698,1.5715,1.5726,1.5735,1.5756,1.5751,1.5762,1.5755,1.5754,1.5779,1.5784,1.5798,1.5805,1.5799,1.5835,1.5829,1.5816,1.5796,1.5833,1.5848,1.5854,1.5774,1.5773,1.5773,1.5772,0,0,1.5743,1.5749,1.5755,1.576,1.5766,1.5779,1.5799,1.5813,1.5822,1.583,1.5847,1.5869,1.5857,1.5865,1.5859,1.5875,1.5912,1.5861,1.5861,1.587,1.5953,1.5963,1.597,1.5905,1.5906,1.5907,1.5952,0,1.5787,1.5822,1.5815,1.5849,1.5864,1.5849,1.5867,1.5873,1.5873,1.5886,1.5886,1.5901,1.5884,1.5889,1.5904,1.5904,1.5928,1.5901,1.5922,1.5922,1.592,1.5978,1.5988,1.6031,1.5958,1.5959,1.596,0,1.5843,1.5853,1.5889,1.5893,1.5899,1.5915,1.5926,1.5939,1.5946,1.5945,1.5953,1.5944,1.5965,1.5944,1.5973,1.5954,1.5962,1.5964,1.5965,1.5967,1.5944,1.5982,1.6044,1.6051,1.5969,1.5968,1.5967,0,1.5885,1.5907,1.5931,1.5936,1.5941,1.5953,1.5955,1.5961,1.5969,1.598,1.5985,1.5998,1.6005,1.6016,1.6011,1.5996,1.6041,1.6019,1.6041,1.6041,1.6052,1.6051,1.6117,1.6056,1.6056,1.6056,1.6056,0,1.5935,1.5958,1.595,1.5965,1.599,1.5982,1.6007,1.6008,1.6013,1.6028,1.6016,1.6031,1.6024,1.6038,1.6035,1.6059,1.6063,1.6063,1.6061,1.6064,1.6064,1.6069,1.6066,1.6058,1.6058,1.6057,1.6057,0,1.5986,1.5982,1.6007,1.601,1.6011,1.603,1.6032,1.6046,1.6045,1.6064,1.6068,1.6066,1.6082,1.6079,1.6097,1.6095,1.6126,1.6121,1.6123,1.6122,1.6144,1.6142,1.6216,1.6225,1.6159,1.6159,1.616,0,1.6018,1.6035,1.604,1.6049,1.6052,1.6067,1.6076,1.6068,1.6078,1.6087,1.61,1.6115,1.6127,1.6153,1.6154,1.6168,1.6163,1.6188,1.6165,1.6167,1.6164,1.6163,1.6165,1.6193,1.6194,1.6194,1.6195,0,1.6076,1.6074,1.6086,1.6098,1.6108,1.6117,1.6125,1.6133,1.6127,1.6138,1.6154,1.6163,1.6181,1.6196,1.6209,1.6213,1.6203,1.6202,1.6208,1.621,1.6211,1.6211,1.6136,1.62,1.62,1.6199,1.6199,1.6199,1.6119,1.6134,1.6139,1.6153,1.6158,1.6166,1.6179,1.618,1.6193,1.6206,1.6202,1.622,1.6227,1.6243,1.6248,1.6263,1.6253,1.6262,1.6264,1.6266,1.6269,1.6209,1.6265,1.6265,1.6265,1.6264,1.6264,0,1.6177,1.6179,1.6193,1.6204,1.6215,1.6204,1.6213,1.6223,1.6239,1.6246,1.6258,1.6277,1.6291,1.6293,1.6307,1.6318,1.6314,1.6322,1.6322,1.6323,1.6276,1.627,1.6326,1.6326,1.6326,1.6326,1.6326,1.6325,1.6208,1.6232,1.623,1.6256,1.6259,1.6276,1.6282,1.6289,1.6295,1.6316,1.6328,1.6329,1.6333,1.6348,1.6361,1.6361,1.6367,1.6377,1.6375,1.6332,1.6326,1.632,1.6314,1.6378,1.6378,1.6421,1.6421,1.6421]},{"header":{"parameterUnit":"m.s-1","parameterCategory":1,"la1":30.2991,"la2":30.254,"lo1":-89.0895,"lo2":-89.0444,"dy":0.0017,"dx":0.0017,"nx":28,"ny":28,"refTime":"2024-02-27T03:00:00:Z","depth":0,"parameterNumber":3,"parameterNumberName":"V-component_of_WINDS"},"data":[0,0,0,0,0,0,0,0,0,0,0,0,0,0,0,0,0,0,0,0,0,0,0,0,0,0,0,0,0,0,0,0,0,0,0,0,0,0,0,0,0,0,0,0,0,0,0,0,0,0,0,0,0,0,0,0,0,0,5.4943,5.4943,0,5.4973,5.4973,5.4973,5.496,5.496,5.4959,5.4958,5.4985,5.4986,5.4988,0,0,0,0,0,0,0,0,0,0,0,0,0,5.4873,5.4874,5.4943,5.4943,5.4944,5.4973,5.4973,5.4973,5.496,5.496,5.4959,5.4958,5.4985,5.4986,5.4988,0,0,0,0,0,0,0,0,0,0,0,0,0,5.4903,5.4875,5.4943,5.4941,5.4941,5.4973,5.4973,5.4974,5.4961,5.496,5.4958,5.4957,5.4984,5.4986,5.4988,5.5022,0,0,5.4994,5.4995,0,0,0,0,0,0,0,0,5.4901,5.4906,5.4941,5.4941,5.4941,5.4962,5.4958,5.499,5.4961,5.4953,5.4958,5.4957,5.4978,5.498,5.4988,5.5024,5.5025,5.4995,5.4996,5.4997,5.4997,0,0,0,0,0,0,0,5.4899,5.4904,5.4955,5.4941,5.4942,5.4938,5.4941,5.4964,5.4971,5.4954,5.4953,5.4957,5.4978,5.4986,5.4989,5.5025,5.4995,5.4996,5.4998,5.4999,5.5092,5.5093,0,0,0,0,0,0,5.4898,5.4903,5.4954,5.4956,5.4918,5.494,5.4943,5.4956,5.4971,5.4972,5.4958,5.4956,5.4983,5.4986,5.499,5.5032,5.4997,5.4999,5.5,5.5091,5.5092,5.5094,0,0,0,0,0,0,5.4896,5.4902,5.4953,5.4929,5.4935,5.4942,5.4957,5.4957,5.4966,5.4974,5.4975,5.4965,5.4983,5.4987,5.5015,5.5033,5.5,5.5002,5.5089,5.5091,5.5093,5.5117,0,0,0,0,0,0,5.4894,5.4902,5.4915,5.4929,5.4936,5.4978,5.4958,5.4959,5.497,5.4968,5.4981,5.4982,5.4982,5.5012,5.5017,5.5035,5.5003,5.5088,5.509,5.5093,5.5115,5.5119,5.5124,0,0,0,0,0,5.4892,5.492,5.4916,5.4922,5.4954,5.4979,5.4983,5.4983,5.4971,5.4985,5.499,5.4982,5.503,5.5015,5.5021,5.504,5.5087,5.509,5.5092,5.5113,5.5119,5.5123,0,0,0,0,0,0,5.4906,5.4921,5.4918,5.4951,5.4964,5.4977,5.4994,5.4989,5.5005,5.5002,5.5001,5.5004,5.5034,5.5039,5.5022,5.5075,5.5057,5.5061,5.507,5.5076,5.508,5.5078,5.5005,0,0,0,0,0,5.4913,5.4933,5.4945,5.4974,5.4981,5.4986,5.4997,5.4997,5.501,5.5015,5.5022,5.5034,5.5052,5.5064,5.5081,5.5115,5.5118,5.5131,5.5136,5.5139,5.5143,5.5163,5.5169,5.5103,5.5103,5.5103,0,0,5.4927,5.4939,5.4951,5.4977,5.4987,5.5008,5.4991,5.5013,5.5029,5.5018,5.5046,5.5052,5.5065,5.5097,5.5111,5.5103,5.5162,5.5143,5.5146,5.5147,5.5167,5.5173,5.5179,5.5105,5.5105,5.5104,0,0,5.4965,5.4975,5.5001,5.5012,5.5028,5.5032,5.5038,5.5053,5.5057,5.5085,5.5078,5.5096,5.5126,5.5137,5.5146,5.519,5.5184,5.5196,5.5219,5.5239,5.5244,5.5249,5.5266,5.5272,5.5199,5.5199,5.5199,0,5.4981,5.5013,5.5014,5.5038,5.505,5.5043,5.5069,5.5079,5.51,5.5108,5.5098,5.5138,5.5146,5.5182,5.5193,5.52,5.5207,5.5194,5.5244,5.5248,5.5253,5.5269,5.5275,5.5201,5.5201,5.52,5.52,0,5.5032,5.5055,5.5074,5.5096,5.511,5.5135,5.5139,5.5153,5.5152,5.5156,5.5186,5.5196,5.5216,5.5224,5.5222,5.5259,5.5254,5.5244,5.5226,5.526,5.5276,5.5282,5.5203,5.5202,5.5202,5.5202,0,0,5.5079,5.5103,5.511,5.5121,5.514,5.5157,5.5181,5.5202,5.5215,5.5229,5.525,5.5277,5.5269,5.528,5.5278,5.5296,5.5332,5.5284,5.5284,5.5293,5.5376,5.5384,5.5391,5.5327,5.5329,5.5329,5.5375,0,5.5119,5.5164,5.5167,5.5207,5.5229,5.5223,5.5245,5.5258,5.5264,5.5282,5.5288,5.5308,5.5294,5.5301,5.5318,5.5324,5.5349,5.5321,5.5347,5.5348,5.5345,5.5399,5.5407,5.545,5.5381,5.5382,5.5383,0,5.5172,5.5191,5.5234,5.5252,5.5261,5.528,5.5301,5.5318,5.5334,5.5336,5.535,5.5347,5.5372,5.5353,5.5388,5.5369,5.538,5.5384,5.5386,5.5389,5.5368,5.5405,5.5463,5.547,5.5392,5.5391,5.539,0,5.5203,5.5239,5.527,5.528,5.53,5.5314,5.5323,5.5338,5.5351,5.5368,5.5377,5.5396,5.5407,5.5422,5.5424,5.541,5.546,5.5441,5.5463,5.5464,5.5475,5.5474,5.5537,5.548,5.548,5.548,5.548,0,5.5248,5.5276,5.5285,5.5304,5.5335,5.5338,5.5367,5.5375,5.5388,5.5409,5.5404,5.5423,5.5425,5.5444,5.5446,5.5476,5.548,5.5483,5.5483,5.5484,5.5484,5.5492,5.549,5.5481,5.5481,5.5481,5.548,0,5.5289,5.5296,5.533,5.5348,5.5353,5.5375,5.539,5.5408,5.5414,5.544,5.5446,5.5454,5.5477,5.5481,5.5507,5.5509,5.5545,5.5541,5.554,5.554,5.5563,5.5561,5.5634,5.5645,5.5579,5.558,5.5581,0,5.5318,5.5339,5.536,5.5374,5.5385,5.5407,5.5422,5.5425,5.544,5.546,5.5476,5.5499,5.5518,5.5555,5.5562,5.5583,5.5581,5.5605,5.5584,5.5584,5.5583,5.5582,5.5585,5.5609,5.561,5.561,5.5611,0,5.5369,5.5372,5.5394,5.5417,5.5435,5.5453,5.547,5.5481,5.5487,5.5504,5.5529,5.5543,5.5571,5.5594,5.5615,5.5623,5.5619,5.5618,5.5624,5.5626,5.5625,5.5627,5.5553,5.5616,5.5615,5.5615,5.5615,5.5615,5.5405,5.5425,5.5444,5.5468,5.5482,5.5498,5.5517,5.5526,5.5547,5.5572,5.5572,5.56,5.5615,5.5643,5.5653,5.5674,5.5666,5.5675,5.5678,5.568,5.5683,5.5621,5.5677,5.5677,5.5677,5.5677,5.5677,0,5.5458,5.547,5.5492,5.5518,5.5537,5.5533,5.5552,5.5568,5.5593,5.5608,5.5628,5.5657,5.5679,5.569,5.5712,5.5727,5.5725,5.5733,5.5732,5.5735,5.5688,5.5681,5.5734,5.5734,5.5734,5.5734,5.5734,5.5734,5.5487,5.5521,5.5526,5.5567,5.5578,5.5607,5.5618,5.5634,5.5647,5.568,5.57,5.5707,5.5721,5.5744,5.5765,5.5767,5.5776,5.5785,5.5787,5.5743,5.5738,5.5732,5.5725,5.5787,5.5787,5.5832,5.5832,5.5832]}]]